Time,TemperatureF,DewpointF,PressureIn,WindDirection,WindDirectionDegrees,WindSpeedMPH,WindSpeedGustMPH,Humidity,HourlyPrecipIn,Conditions,Clouds,dailyrainin,SoftwareType,DateUTC
2013-02-24 00:00:00,49.1,18.2,29.79,SSW,203,7.8,13.4,29,0.00,,,0.00,WUHU216HW,2013-02-24 07:00:00,
2013-02-24 00:05:00,50.8,17.6,29.78,West,270,10.5,13.4,27,0.00,,,0.00,WUHU216HW,2013-02-24 07:05:00,
2013-02-24 00:10:00,51.7,17.6,29.79,SW,225,7.8,12.5,26,0.00,,,0.00,WUHU216HW,2013-02-24 07:10:00,
2013-02-24 00:15:00,52.4,17.2,29.79,WSW,248,4.5,12.5,25,0.00,,,0.00,WUHU216HW,2013-02-24 07:15:00,
2013-02-24 00:20:00,52.6,17.4,29.79,SSW,203,5.4,11.4,25,0.00,,,0.00,WUHU216HW,2013-02-24 07:20:00,
2013-02-24 00:25:00,52.7,17.5,29.79,WSW,248,4.3,11.4,25,0.00,,,0.00,WUHU216HW,2013-02-24 07:25:00,
2013-02-24 00:30:00,52.9,16.8,29.78,SSW,203,9.8,12.8,24,0.00,,,0.00,WUHU216HW,2013-02-24 07:30:00,
2013-02-24 00:36:00,53.8,16.6,29.78,SSW,203,8.5,17.0,23,0.00,,,0.00,WUHU216HW,2013-02-24 07:36:00,
2013-02-24 00:40:00,54.4,17.0,29.78,SW,225,7.6,20.6,23,0.00,,,0.00,WUHU216HW,2013-02-24 07:40:00,
2013-02-24 00:45:00,55.1,15.8,29.78,WNW,293,14.8,20.6,21,0.00,,,0.00,WUHU216HW,2013-02-24 07:45:00,
2013-02-24 00:50:00,55.3,15.9,29.78,NW,315,13.9,21.5,21,0.00,,,0.00,WUHU216HW,2013-02-24 07:50:00,
2013-02-24 00:55:00,56.2,15.7,29.78,West,270,8.9,21.5,20,0.00,,,0.00,WUHU216HW,2013-02-24 07:55:00,
2013-02-24 01:00:00,56.2,15.7,29.78,South,180,14.8,22.1,20,0.00,,,0.00,WUHU216HW,2013-02-24 08:00:00,
2013-02-24 01:05:00,56.3,15.8,29.77,WSW,248,17.0,22.1,20,0.00,,,0.00,WUHU216HW,2013-02-24 08:05:00,
2013-02-24 01:10:00,56.5,16.0,29.77,WSW,248,16.3,19.5,20,0.00,,,0.00,WUHU216HW,2013-02-24 08:10:00,
2013-02-24 01:15:00,56.3,15.8,29.77,SW,225,14.5,18.6,20,0.00,,,0.00,WUHU216HW,2013-02-24 08:15:00,
2013-02-24 01:20:00,56.7,14.6,29.77,WSW,248,6.5,23.0,19,0.00,,,0.00,WUHU216HW,2013-02-24 08:20:00,
2013-02-24 01:25:00,56.5,14.4,29.77,NW,315,15.7,23.0,19,0.00,,,0.00,WUHU216HW,2013-02-24 08:25:00,
2013-02-24 01:30:00,56.5,12.9,29.77,SW,225,12.8,20.4,18,0.00,,,0.00,WUHU216HW,2013-02-24 08:30:00,
2013-02-24 01:35:00,56.5,16.0,29.77,WNW,293,10.1,20.8,20,0.00,,,0.00,WUHU216HW,2013-02-24 08:35:00,
2013-02-24 01:40:00,56.2,15.7,29.76,WSW,248,12.1,20.8,20,0.00,,,0.00,WUHU216HW,2013-02-24 08:40:00,
2013-02-24 01:46:00,56.0,15.6,29.76,WSW,248,13.0,16.8,20,0.00,,,0.00,WUHU216HW,2013-02-24 08:46:00,
2013-02-24 01:50:00,55.8,15.4,29.76,West,270,15.0,18.6,20,0.00,,,0.00,WUHU216HW,2013-02-24 08:50:00,
2013-02-24 01:55:00,56.2,15.7,29.75,WSW,248,9.2,18.6,20,0.00,,,0.00,WUHU216HW,2013-02-24 08:55:00,
2013-02-24 02:00:00,56.0,15.6,29.76,WSW,248,15.9,18.6,20,0.00,,,0.00,WUHU216HW,2013-02-24 09:00:00,
2013-02-24 02:05:00,55.6,15.3,29.76,West,270,12.1,16.1,20,0.00,,,0.00,WUHU216HW,2013-02-24 09:05:00,
2013-02-24 02:10:00,55.4,15.1,29.75,West,270,9.6,16.1,20,0.00,,,0.00,WUHU216HW,2013-02-24 09:10:00,
2013-02-24 02:15:00,55.4,16.0,29.75,West,270,15.7,23.3,21,0.00,,,0.00,WUHU216HW,2013-02-24 09:15:00,
2013-02-24 02:20:00,55.8,15.4,29.75,WSW,248,13.4,23.3,20,0.00,,,0.00,WUHU216HW,2013-02-24 09:20:00,
2013-02-24 02:26:00,55.8,16.4,29.75,WSW,248,17.9,22.1,21,0.00,,,0.00,WUHU216HW,2013-02-24 09:26:00,
2013-02-24 02:31:00,55.8,16.4,29.75,NW,315,6.9,22.1,21,0.00,,,0.00,WUHU216HW,2013-02-24 09:31:00,
2013-02-24 02:36:00,55.6,16.2,29.75,West,270,12.1,20.8,21,0.00,,,0.00,WUHU216HW,2013-02-24 09:36:00,
2013-02-24 02:40:00,55.4,16.0,29.75,WSW,248,11.0,20.8,21,0.00,,,0.00,WUHU216HW,2013-02-24 09:40:00,
2013-02-24 02:45:00,55.1,16.7,29.75,NNW,338,6.9,17.0,22,0.00,,,0.00,WUHU216HW,2013-02-24 09:45:00,
2013-02-24 02:50:00,54.4,16.0,29.75,WSW,248,7.2,17.0,22,0.00,,,0.00,WUHU216HW,2013-02-24 09:50:00,
2013-02-24 02:55:00,54.0,16.7,29.75,West,270,3.4,12.8,23,0.00,,,0.00,WUHU216HW,2013-02-24 09:55:00,
2013-02-24 03:00:00,53.6,16.4,29.75,West,270,12.3,16.1,23,0.00,,,0.00,WUHU216HW,2013-02-24 10:00:00,
2013-02-24 03:05:00,53.5,17.2,29.75,WSW,248,9.2,16.1,24,0.00,,,0.00,WUHU216HW,2013-02-24 10:05:00,
2013-02-24 03:10:00,53.1,16.8,29.75,WSW,248,9.6,14.8,24,0.00,,,0.00,WUHU216HW,2013-02-24 10:10:00,
2013-02-24 03:15:00,52.9,16.8,29.75,WNW,293,6.5,14.8,24,0.00,,,0.00,WUHU216HW,2013-02-24 10:15:00,
2013-02-24 03:20:00,52.6,17.4,29.75,West,270,5.6,12.1,25,0.00,,,0.00,WUHU216HW,2013-02-24 10:20:00,
2013-02-24 03:25:00,52.2,17.0,29.75,NW,315,4.3,8.3,25,0.00,,,0.00,WUHU216HW,2013-02-24 10:25:00,
2013-02-24 03:30:00,51.8,16.7,29.75,WSW,248,4.7,6.9,25,0.00,,,0.00,WUHU216HW,2013-02-24 10:30:00,
2013-02-24 03:35:00,51.7,16.6,29.76,WSW,248,4.7,7.8,25,0.00,,,0.00,WUHU216HW,2013-02-24 10:35:00,
2013-02-24 03:40:00,51.7,16.6,29.76,WNW,293,3.6,7.8,25,0.00,,,0.00,WUHU216HW,2013-02-24 10:40:00,
2013-02-24 03:45:00,51.8,16.7,29.76,NNW,338,2.5,5.1,25,0.00,,,0.00,WUHU216HW,2013-02-24 10:45:00,
2013-02-24 03:50:00,51.7,16.6,29.75,NNW,338,1.1,5.8,25,0.00,,,0.00,WUHU216HW,2013-02-24 10:50:00,
2013-02-24 03:55:00,51.3,17.2,29.76,ENE,68,3.4,5.8,26,0.00,,,0.00,WUHU216HW,2013-02-24 10:55:00,
2013-02-24 04:01:00,50.9,17.8,29.76,North,0,1.3,4.0,27,0.00,,,0.00,WUHU216HW,2013-02-24 11:01:00,
2013-02-24 04:06:00,50.2,17.2,29.76,SE,135,1.6,3.1,27,0.00,,,0.00,WUHU216HW,2013-02-24 11:06:00,
2013-02-24 04:10:00,49.7,16.7,29.76,SSW,203,1.3,3.8,27,0.00,,,0.00,WUHU216HW,2013-02-24 11:10:00,
2013-02-24 04:15:00,49.7,17.6,29.76,SE,135,2.2,3.8,28,0.00,,,0.00,WUHU216HW,2013-02-24 11:15:00,
2013-02-24 04:20:00,49.7,16.7,29.76,ENE,68,1.3,4.5,27,0.00,,,0.00,WUHU216HW,2013-02-24 11:20:00,
2013-02-24 04:25:00,49.7,17.6,29.76,ENE,68,2.5,4.5,28,0.00,,,0.00,WUHU216HW,2013-02-24 11:25:00,
2013-02-24 04:30:00,49.5,17.6,29.76,ESE,113,2.2,4.0,28,0.00,,,0.00,WUHU216HW,2013-02-24 11:30:00,
2013-02-24 04:35:00,49.3,18.3,29.76,North,0,1.8,2.7,29,0.00,,,0.00,WUHU216HW,2013-02-24 11:35:00,
2013-02-24 04:41:00,48.6,17.7,29.76,East,90,3.1,3.1,29,0.00,,,0.00,WUHU216HW,2013-02-24 11:41:00,
2013-02-24 04:45:00,48.2,17.5,29.77,East,90,1.6,3.1,29,0.00,,,0.00,WUHU216HW,2013-02-24 11:45:00,
2013-02-24 04:50:00,47.9,18.0,29.77,ENE,68,1.8,2.2,30,0.00,,,0.00,WUHU216HW,2013-02-24 11:50:00,
2013-02-24 04:55:00,47.5,17.7,29.77,NNE,23,0.7,2.5,30,0.00,,,0.00,WUHU216HW,2013-02-24 11:55:00,
2013-02-24 05:00:00,47.0,17.9,29.77,NNE,23,1.1,2.5,31,0.00,,,0.00,WUHU216HW,2013-02-24 12:00:00,
2013-02-24 05:05:00,46.4,17.4,29.77,ENE,68,1.1,2.5,31,0.00,,,0.00,WUHU216HW,2013-02-24 12:05:00,
2013-02-24 05:10:00,46.4,18.1,29.77,NE,45,2.0,2.5,32,0.00,,,0.00,WUHU216HW,2013-02-24 12:10:00,
2013-02-24 05:15:00,46.4,18.7,29.77,East,90,2.9,3.8,33,0.00,,,0.00,WUHU216HW,2013-02-24 12:15:00,
2013-02-24 05:20:00,46.4,18.1,29.77,East,90,0.9,3.8,32,0.00,,,0.00,WUHU216HW,2013-02-24 12:20:00,
2013-02-24 05:25:00,46.1,17.7,29.77,East,90,0.7,2.9,32,0.00,,,0.00,WUHU216HW,2013-02-24 12:25:00,
2013-02-24 05:30:00,45.7,18.1,29.77,ENE,68,1.8,1.8,33,0.00,,,0.00,WUHU216HW,2013-02-24 12:30:00,
2013-02-24 05:36:00,45.4,17.7,29.77,North,0,0.4,1.8,33,0.00,,,0.00,WUHU216HW,2013-02-24 12:36:00,
2013-02-24 05:41:00,45.0,17.5,29.77,North,0,0.0,1.8,33,0.00,,,0.00,WUHU216HW,2013-02-24 12:41:00,
2013-02-24 05:46:00,44.6,17.1,29.77,North,0,0.7,2.7,33,0.00,,,0.00,WUHU216HW,2013-02-24 12:46:00,
2013-02-24 05:51:00,44.3,16.8,29.77,North,0,1.3,2.7,33,0.00,,,0.00,WUHU216HW,2013-02-24 12:51:00,
2013-02-24 05:56:00,44.3,18.1,29.77,NNW,338,0.7,2.9,35,0.00,,,0.00,WUHU216HW,2013-02-24 12:56:00,
2013-02-24 06:01:00,44.5,18.3,29.77,NNE,23,0.7,2.9,35,0.00,,,0.00,WUHU216HW,2013-02-24 13:01:00,
2013-02-24 06:06:00,44.3,18.1,29.78,NE,45,1.1,2.0,35,0.00,,,0.00,WUHU216HW,2013-02-24 13:06:00,
2013-02-24 06:11:00,43.9,17.8,29.78,North,0,0.0,1.8,35,0.00,,,0.00,WUHU216HW,2013-02-24 13:11:00,
2013-02-24 06:16:00,43.4,18.0,29.78,NE,45,0.2,1.1,36,0.00,,,0.00,WUHU216HW,2013-02-24 13:16:00,
2013-02-24 06:21:00,43.2,18.5,29.77,NNE,23,0.2,1.8,37,0.00,,,0.00,WUHU216HW,2013-02-24 13:21:00,
2013-02-24 06:26:00,43.0,17.6,29.77,East,90,0.9,1.8,36,0.00,,,0.00,WUHU216HW,2013-02-24 13:26:00,
2013-02-24 06:31:00,42.8,18.2,29.77,ENE,68,1.3,1.8,37,0.00,,,0.00,WUHU216HW,2013-02-24 13:31:00,
2013-02-24 06:36:00,42.8,18.8,29.77,ENE,68,1.1,2.2,38,0.00,,,0.00,WUHU216HW,2013-02-24 13:36:00,
2013-02-24 06:41:00,43.0,19.0,29.77,NE,45,0.7,2.2,38,0.00,,,0.00,WUHU216HW,2013-02-24 13:41:00,
2013-02-24 06:46:00,43.0,19.0,29.76,ENE,68,1.1,1.6,38,0.00,,,0.00,WUHU216HW,2013-02-24 13:46:00,
2013-02-24 06:51:00,43.2,19.2,29.76,East,90,1.3,3.1,38,0.00,,,0.00,WUHU216HW,2013-02-24 13:51:00,
2013-02-24 06:56:00,43.0,19.0,29.76,East,90,0.4,3.1,38,0.00,,,0.00,WUHU216HW,2013-02-24 13:56:00,
2013-02-24 07:01:00,42.7,18.6,29.77,SE,135,0.0,1.8,38,0.00,,,0.00,WUHU216HW,2013-02-24 14:01:00,
2013-02-24 07:06:00,42.5,18.6,29.77,SE,135,0.4,2.0,38,0.00,,,0.00,WUHU216HW,2013-02-24 14:06:00,
2013-02-24 07:11:00,42.1,18.8,29.78,East,90,1.1,2.0,39,0.00,,,0.00,WUHU216HW,2013-02-24 14:11:00,
2013-02-24 07:16:00,42.1,18.8,29.78,ESE,113,1.1,1.3,39,0.00,,,0.00,WUHU216HW,2013-02-24 14:16:00,
2013-02-24 07:21:00,42.3,19.7,29.77,ESE,113,0.2,1.3,40,0.00,,,0.00,WUHU216HW,2013-02-24 14:21:00,
2013-02-24 07:26:00,42.5,19.8,29.77,ESE,113,1.1,2.2,40,0.00,,,0.00,WUHU216HW,2013-02-24 14:26:00,
2013-02-24 07:31:00,42.7,20.0,29.78,SE,135,0.0,2.2,40,0.00,,,0.00,WUHU216HW,2013-02-24 14:31:00,
2013-02-24 07:36:00,42.8,20.7,29.78,SE,135,2.2,2.5,41,0.00,,,0.00,WUHU216HW,2013-02-24 14:36:00,
2013-02-24 07:41:00,43.4,21.2,29.78,ESE,113,1.8,2.7,41,0.00,,,0.00,WUHU216HW,2013-02-24 14:41:00,
2013-02-24 07:46:00,43.6,21.3,29.78,ESE,113,1.1,3.4,41,0.00,,,0.00,WUHU216HW,2013-02-24 14:46:00,
2013-02-24 07:51:00,43.9,21.2,29.78,SSE,158,0.7,3.4,40,0.00,,,0.00,WUHU216HW,2013-02-24 14:51:00,
2013-02-24 07:56:00,44.3,21.4,29.79,South,180,2.5,2.5,40,0.00,,,0.00,WUHU216HW,2013-02-24 14:56:00,
2013-02-24 08:01:00,45.0,22.2,29.78,South,180,2.7,2.7,40,0.00,,,0.00,WUHU216HW,2013-02-24 15:01:00,
2013-02-24 08:06:00,45.5,22.6,29.79,SSW,203,1.8,4.7,40,0.00,,,0.00,WUHU216HW,2013-02-24 15:06:00,
2013-02-24 08:11:00,46.1,22.4,29.79,SE,135,2.5,4.7,39,0.00,,,0.00,WUHU216HW,2013-02-24 15:11:00,
2013-02-24 08:16:00,46.4,22.8,29.78,ESE,113,1.1,4.3,39,0.00,,,0.00,WUHU216HW,2013-02-24 15:16:00,
2013-02-24 08:21:00,47.0,23.2,29.79,SSE,158,1.6,4.3,39,0.00,,,0.00,WUHU216HW,2013-02-24 15:21:00,
2013-02-24 08:26:00,47.2,22.7,29.79,SE,135,0.4,2.9,38,0.00,,,0.00,WUHU216HW,2013-02-24 15:26:00,
2013-02-24 08:31:00,47.9,23.4,29.79,SE,135,2.7,2.7,38,0.00,,,0.00,WUHU216HW,2013-02-24 15:31:00,
2013-02-24 08:36:00,48.6,24.0,29.79,SE,135,1.1,2.7,38,0.00,,,0.00,WUHU216HW,2013-02-24 15:36:00,
2013-02-24 08:41:00,49.7,24.3,29.79,East,90,0.9,2.7,37,0.00,,,0.00,WUHU216HW,2013-02-24 15:41:00,
2013-02-24 08:46:00,50.2,24.0,29.78,SE,135,1.3,2.5,36,0.00,,,0.00,WUHU216HW,2013-02-24 15:46:00,
2013-02-24 08:51:00,50.9,23.3,29.78,SE,135,3.8,3.8,34,0.00,,,0.00,WUHU216HW,2013-02-24 15:51:00,
2013-02-24 08:56:00,51.5,23.1,29.78,North,0,7.4,8.5,33,0.00,,,0.00,WUHU216HW,2013-02-24 15:56:00,
2013-02-24 09:01:00,52.2,20.8,29.78,WSW,248,2.9,9.6,29,0.00,,,0.00,WUHU216HW,2013-02-24 16:01:00,
2013-02-24 09:06:00,53.3,18.0,29.78,SW,225,8.5,18.8,25,0.00,,,0.00,WUHU216HW,2013-02-24 16:06:00,
2013-02-24 09:11:00,53.8,18.5,29.78,WNW,293,9.4,18.8,25,0.00,,,0.00,WUHU216HW,2013-02-24 16:11:00,
2013-02-24 09:16:00,54.2,17.8,29.78,WSW,248,6.5,15.7,24,0.00,,,0.00,WUHU216HW,2013-02-24 16:16:00,
2013-02-24 09:21:00,54.4,17.9,29.78,SW,225,7.4,19.5,24,0.00,,,0.00,WUHU216HW,2013-02-24 16:21:00,
2013-02-24 09:26:00,54.7,18.3,29.77,West,270,12.8,19.5,24,0.00,,,0.00,WUHU216HW,2013-02-24 16:26:00,
2013-02-24 09:31:00,54.9,18.4,29.77,SSW,203,7.8,14.3,24,0.00,,,0.00,WUHU216HW,2013-02-24 16:31:00,
2013-02-24 09:36:00,55.1,18.5,29.78,WSW,248,12.1,16.3,24,0.00,,,0.00,WUHU216HW,2013-02-24 16:36:00,
2013-02-24 09:41:00,55.1,18.5,29.77,WSW,248,5.8,16.3,24,0.00,,,0.00,WUHU216HW,2013-02-24 16:41:00,
2013-02-24 09:46:00,55.3,18.7,29.77,WSW,248,8.5,15.7,24,0.00,,,0.00,WUHU216HW,2013-02-24 16:46:00,
2013-02-24 09:51:00,55.3,18.7,29.77,NNW,338,6.7,14.8,24,0.00,,,0.00,WUHU216HW,2013-02-24 16:51:00,
2013-02-24 09:56:00,55.4,18.9,29.77,WSW,248,12.8,14.8,24,0.00,,,0.00,WUHU216HW,2013-02-24 16:56:00,
2013-02-24 10:01:00,55.8,19.2,29.76,SSE,158,6.0,13.4,24,0.00,,,0.00,WUHU216HW,2013-02-24 17:01:00,
2013-02-24 10:06:00,56.0,19.4,29.76,WSW,248,6.9,13.4,24,0.00,,,0.00,WUHU216HW,2013-02-24 17:06:00,
2013-02-24 10:11:00,56.3,18.7,29.75,SW,225,6.7,13.4,23,0.00,,,0.00,WUHU216HW,2013-02-24 17:11:00,
2013-02-24 10:16:00,56.5,18.8,29.75,NNE,23,8.3,14.3,23,0.00,,,0.00,WUHU216HW,2013-02-24 17:16:00,
2013-02-24 10:21:00,56.7,19.0,29.75,SW,225,9.2,14.3,23,0.00,,,0.00,WUHU216HW,2013-02-24 17:21:00,
2013-02-24 10:26:00,56.9,19.1,29.75,SW,225,10.1,13.4,23,0.00,,,0.00,WUHU216HW,2013-02-24 17:26:00,
2013-02-24 10:31:00,57.2,19.5,29.74,SSW,203,7.8,15.0,23,0.00,,,0.00,WUHU216HW,2013-02-24 17:31:00,
2013-02-24 10:36:00,57.4,19.5,29.74,South,180,9.8,18.1,23,0.00,,,0.00,WUHU216HW,2013-02-24 17:36:00,
2013-02-24 10:41:00,57.8,18.9,29.74,WSW,248,12.1,18.1,22,0.00,,,0.00,WUHU216HW,2013-02-24 17:41:00,
2013-02-24 10:46:00,58.0,19.1,29.74,SW,225,4.9,14.1,22,0.00,,,0.00,WUHU216HW,2013-02-24 17:46:00,
2013-02-24 10:51:00,58.1,18.3,29.74,WSW,248,16.1,17.9,21,0.00,,,0.00,WUHU216HW,2013-02-24 17:51:00,
2013-02-24 10:56:00,58.0,18.1,29.74,West,270,12.1,17.9,21,0.00,,,0.00,WUHU216HW,2013-02-24 17:56:00,
2013-02-24 11:01:00,58.0,18.1,29.73,WSW,248,10.1,16.1,21,0.00,,,0.00,WUHU216HW,2013-02-24 18:01:00,
2013-02-24 11:06:00,58.7,18.7,29.73,West,270,5.4,13.9,21,0.00,,,0.00,WUHU216HW,2013-02-24 18:06:00,
2013-02-24 11:11:00,58.9,19.8,29.73,South,180,7.2,13.9,22,0.00,,,0.00,WUHU216HW,2013-02-24 18:11:00,
2013-02-24 11:16:00,58.9,18.8,29.73,West,270,8.5,13.9,21,0.00,,,0.00,WUHU216HW,2013-02-24 18:16:00,
2013-02-24 11:21:00,59.2,19.2,29.72,West,270,8.9,11.9,21,0.00,,,0.00,WUHU216HW,2013-02-24 18:21:00,
2013-02-24 11:26:00,59.2,19.2,29.72,WSW,248,16.3,16.3,21,0.00,,,0.00,WUHU216HW,2013-02-24 18:26:00,
2013-02-24 11:31:00,59.0,19.0,29.71,SW,225,7.6,16.3,21,0.00,,,0.00,WUHU216HW,2013-02-24 18:31:00,
2013-02-24 11:36:00,59.8,19.6,29.71,West,270,5.4,16.3,21,0.00,,,0.00,WUHU216HW,2013-02-24 18:36:00,
2013-02-24 11:41:00,59.9,19.8,29.70,West,270,12.8,12.8,21,0.00,,,0.00,WUHU216HW,2013-02-24 18:41:00,
2013-02-24 11:46:00,60.1,19.9,29.70,SSE,158,6.3,13.6,21,0.00,,,0.00,WUHU216HW,2013-02-24 18:46:00,
2013-02-24 11:51:00,61.0,16.7,29.69,West,270,16.6,19.0,18,0.00,,,0.00,WUHU216HW,2013-02-24 18:51:00,
2013-02-24 11:56:00,61.4,16.9,29.68,WSW,248,13.2,25.3,18,0.00,,,0.00,WUHU216HW,2013-02-24 18:56:00,
2013-02-24 12:01:00,61.6,15.5,29.69,WSW,248,21.0,26.2,17,0.00,,,0.00,WUHU216HW,2013-02-24 19:01:00,
2013-02-24 12:06:00,61.9,15.8,29.68,WNW,293,17.9,26.2,17,0.00,,,0.00,WUHU216HW,2013-02-24 19:06:00,
2013-02-24 12:11:00,62.1,15.9,29.67,WSW,248,19.2,23.7,17,0.00,,,0.00,WUHU216HW,2013-02-24 19:11:00,
2013-02-24 12:16:00,62.6,14.8,29.67,SW,225,8.7,23.7,16,0.00,,,0.00,WUHU216HW,2013-02-24 19:16:00,
2013-02-24 12:21:00,63.2,13.6,29.68,SW,225,18.3,22.4,15,0.00,,,0.00,WUHU216HW,2013-02-24 19:21:00,
2013-02-24 12:26:00,63.0,13.5,29.66,West,270,20.8,23.5,15,0.00,,,0.00,WUHU216HW,2013-02-24 19:26:00,
2013-02-24 12:31:00,62.3,14.5,29.66,SW,225,12.8,23.5,16,0.00,,,0.00,WUHU216HW,2013-02-24 19:31:00,
2013-02-24 12:36:00,62.1,14.4,29.66,SW,225,20.1,20.8,16,0.00,,,0.00,WUHU216HW,2013-02-24 19:36:00,
2013-02-24 12:41:00,62.3,14.5,29.66,West,270,11.4,26.2,16,0.00,,,0.00,WUHU216HW,2013-02-24 19:41:00,
2013-02-24 12:46:00,62.1,14.4,29.65,WSW,248,10.3,26.2,16,0.00,,,0.00,WUHU216HW,2013-02-24 19:46:00,
2013-02-24 12:51:00,62.5,14.7,29.66,West,270,19.0,23.7,16,0.00,,,0.00,WUHU216HW,2013-02-24 19:51:00,
2013-02-24 12:56:00,62.6,14.8,29.65,NNW,338,14.1,23.7,16,0.00,,,0.00,WUHU216HW,2013-02-24 19:56:00,
2013-02-24 13:01:00,62.6,13.2,29.65,WSW,248,25.1,26.4,15,0.00,,,0.00,WUHU216HW,2013-02-24 20:01:00,
2013-02-24 13:06:00,62.8,13.4,29.65,SW,225,19.0,26.4,15,0.00,,,0.00,WUHU216HW,2013-02-24 20:06:00,
2013-02-24 13:11:00,63.0,13.5,29.65,SW,225,19.9,25.1,15,0.00,,,0.00,WUHU216HW,2013-02-24 20:11:00,
2013-02-24 13:16:00,62.5,13.1,29.65,WSW,248,20.1,35.6,15,0.00,,,0.00,WUHU216HW,2013-02-24 20:16:00,
2013-02-24 13:21:00,61.9,14.2,29.65,WSW,248,17.9,35.6,16,0.00,,,0.00,WUHU216HW,2013-02-24 20:21:00,
2013-02-24 13:26:00,61.9,14.2,29.65,SW,225,19.5,28.6,16,0.00,,,0.00,WUHU216HW,2013-02-24 20:26:00,
2013-02-24 13:31:00,61.7,12.5,29.64,WSW,248,21.7,28.6,15,0.00,,,0.00,WUHU216HW,2013-02-24 20:31:00,
2013-02-24 13:36:00,61.6,14.0,29.63,WSW,248,14.3,28.6,16,0.00,,,0.00,WUHU216HW,2013-02-24 20:36:00,
2013-02-24 13:41:00,61.2,16.7,29.63,West,270,15.0,27.3,18,0.00,,,0.00,WUHU216HW,2013-02-24 20:41:00,
2013-02-24 13:46:00,60.5,16.2,29.63,WNW,293,15.2,27.3,18,0.00,,,0.00,WUHU216HW,2013-02-24 20:46:00,
2013-02-24 13:51:00,60.7,16.3,29.63,SW,225,6.9,21.5,18,0.00,,,0.00,WUHU216HW,2013-02-24 20:51:00,
2013-02-24 13:56:00,60.7,20.4,29.63,North,0,16.3,19.9,21,0.00,,,0.00,WUHU216HW,2013-02-24 20:56:00,
2013-02-24 14:01:00,58.5,18.6,29.64,WNW,293,11.6,19.0,21,0.00,,,0.00,WUHU216HW,2013-02-24 21:01:00,
2013-02-24 14:06:00,57.8,18.9,29.64,WNW,293,20.8,20.8,22,0.00,,,0.00,WUHU216HW,2013-02-24 21:06:00,
2013-02-24 14:11:00,57.4,18.6,29.65,NW,315,6.9,20.8,22,0.00,,,0.00,WUHU216HW,2013-02-24 21:11:00,
2013-02-24 14:16:00,57.2,20.3,29.65,NW,315,6.7,20.8,24,0.00,,,0.00,WUHU216HW,2013-02-24 21:16:00,
2013-02-24 14:21:00,56.9,20.1,29.66,NW,315,8.5,16.1,24,0.00,,,0.00,WUHU216HW,2013-02-24 21:21:00,
2013-02-24 14:26:00,57.1,21.2,29.66,WNW,293,11.6,15.2,25,0.00,,,0.00,WUHU216HW,2013-02-24 21:26:00,
2013-02-24 14:31:00,55.6,22.8,29.66,NW,315,13.6,22.1,28,0.00,,,0.00,WUHU216HW,2013-02-24 21:31:00,
2013-02-24 14:36:00,54.9,24.0,29.66,NW,315,8.7,22.1,30,0.00,,,0.00,WUHU216HW,2013-02-24 21:36:00,
2013-02-24 14:41:00,55.1,24.2,29.66,NW,315,10.5,19.0,30,0.00,,,0.00,WUHU216HW,2013-02-24 21:41:00,
2013-02-24 14:46:00,54.9,24.0,29.66,NW,315,20.8,20.8,30,0.00,,,0.00,WUHU216HW,2013-02-24 21:46:00,
2013-02-24 14:51:00,54.5,24.5,29.66,SSW,203,15.7,20.8,31,0.00,,,0.00,WUHU216HW,2013-02-24 21:51:00,
2013-02-24 14:56:00,54.9,24.0,29.66,West,270,9.6,20.8,30,0.00,,,0.00,WUHU216HW,2013-02-24 21:56:00,
2013-02-24 15:01:00,54.5,23.8,29.67,WNW,293,21.9,21.9,30,0.00,,,0.00,WUHU216HW,2013-02-24 22:01:00,
2013-02-24 15:06:00,54.0,23.3,29.67,NW,315,8.5,21.9,30,0.00,,,0.00,WUHU216HW,2013-02-24 22:06:00,
2013-02-24 15:11:00,53.3,22.7,29.68,WNW,293,12.8,21.9,30,0.00,,,0.00,WUHU216HW,2013-02-24 22:11:00,
2013-02-24 15:16:00,53.3,21.8,29.68,WNW,293,7.6,17.0,29,0.00,,,0.00,WUHU216HW,2013-02-24 22:16:00,
2013-02-24 15:21:00,53.1,21.6,29.68,NNW,338,8.1,18.1,29,0.00,,,0.00,WUHU216HW,2013-02-24 22:21:00,
2013-02-24 15:26:00,52.7,21.3,29.68,NW,315,8.1,18.1,29,0.00,,,0.00,WUHU216HW,2013-02-24 22:26:00,
2013-02-24 15:31:00,52.0,21.6,29.68,NNW,338,14.3,19.5,30,0.00,,,0.00,WUHU216HW,2013-02-24 22:31:00,
2013-02-24 15:36:00,50.8,21.2,29.69,West,270,13.0,23.0,31,0.00,,,0.00,WUHU216HW,2013-02-24 22:36:00,
2013-02-24 15:41:00,50.2,21.3,29.70,West,270,11.4,23.0,32,0.00,,,0.00,WUHU216HW,2013-02-24 22:41:00,
2013-02-24 15:46:00,49.5,20.1,29.70,NW,315,13.6,20.8,31,0.00,,,0.00,WUHU216HW,2013-02-24 22:46:00,
2013-02-24 15:51:00,49.3,19.3,29.70,WNW,293,9.6,22.4,30,0.00,,,0.00,WUHU216HW,2013-02-24 22:51:00,
2013-02-24 15:56:00,49.1,19.1,29.71,NNW,338,15.0,22.4,30,0.00,,,0.00,WUHU216HW,2013-02-24 22:56:00,
2013-02-24 16:01:00,48.6,17.7,29.71,NW,315,9.2,18.1,29,0.00,,,0.00,WUHU216HW,2013-02-24 23:01:00,
2013-02-24 16:06:00,48.1,18.9,29.72,NW,315,14.8,18.6,31,0.00,,,0.00,WUHU216HW,2013-02-24 23:06:00,
2013-02-24 16:11:00,47.9,18.0,29.71,NW,315,12.8,18.6,30,0.00,,,0.00,WUHU216HW,2013-02-24 23:11:00,
2013-02-24 16:16:00,47.7,15.1,29.72,North,0,19.0,19.0,27,0.00,,,0.00,WUHU216HW,2013-02-24 23:16:00,
2013-02-24 16:21:00,47.3,14.8,29.71,NNW,338,8.7,19.0,27,0.00,,,0.00,WUHU216HW,2013-02-24 23:21:00,
2013-02-24 16:26:00,47.2,12.8,29.72,WNW,293,13.6,19.0,25,0.00,,,0.00,WUHU216HW,2013-02-24 23:26:00,
2013-02-24 16:31:00,47.2,11.9,29.72,WNW,293,18.6,28.0,24,0.00,,,0.00,WUHU216HW,2013-02-24 23:31:00,
2013-02-24 16:36:00,46.8,11.5,29.72,NNW,338,12.5,28.0,24,0.00,,,0.00,WUHU216HW,2013-02-24 23:36:00,
2013-02-24 16:41:00,46.4,12.2,29.72,WNW,293,23.0,23.0,25,0.00,,,0.00,WUHU216HW,2013-02-24 23:41:00,
2013-02-24 16:46:00,46.3,12.0,29.73,WSW,248,11.4,23.0,25,0.00,,,0.00,WUHU216HW,2013-02-24 23:46:00,
2013-02-24 16:51:00,46.1,10.9,29.73,NW,315,16.1,23.3,24,0.00,,,0.00,WUHU216HW,2013-02-24 23:51:00,
2013-02-24 16:56:00,45.7,10.6,29.72,NNW,338,15.0,23.3,24,0.00,,,0.00,WUHU216HW,2013-02-24 23:56:00,
2013-02-24 17:01:00,45.7,10.6,29.73,West,270,11.4,21.9,24,0.00,,,0.00,WUHU216HW,2013-02-25 00:01:00,
2013-02-24 17:06:00,45.5,8.6,29.74,NNW,338,15.7,24.8,22,0.00,,,0.00,WUHU216HW,2013-02-25 00:06:00,
2013-02-24 17:11:00,45.5,7.7,29.74,NW,315,13.4,24.8,21,0.00,,,0.00,WUHU216HW,2013-02-25 00:11:00,
2013-02-24 17:16:00,45.4,7.6,29.75,NW,315,18.6,30.2,21,0.00,,,0.00,WUHU216HW,2013-02-25 00:16:00,
2013-02-24 17:21:00,45.2,7.5,29.75,WNW,293,13.0,30.2,21,0.00,,,0.00,WUHU216HW,2013-02-25 00:21:00,
2013-02-24 17:26:00,45.0,7.3,29.75,WNW,293,8.3,20.8,21,0.00,,,0.00,WUHU216HW,2013-02-25 00:26:00,
2013-02-24 17:31:00,45.0,7.3,29.76,NW,315,9.2,15.2,21,0.00,,,0.00,WUHU216HW,2013-02-25 00:31:00,
2013-02-24 17:36:00,44.6,6.1,29.75,North,0,5.8,18.8,20,0.00,,,0.00,WUHU216HW,2013-02-25 00:36:00,
2013-02-24 17:41:00,44.6,6.1,29.76,NNW,338,15.0,18.8,20,0.00,,,0.00,WUHU216HW,2013-02-25 00:41:00,
2013-02-24 17:46:00,44.3,5.8,29.75,NW,315,7.6,19.0,20,0.00,,,0.00,WUHU216HW,2013-02-25 00:46:00,
2013-02-24 17:51:00,44.3,6.7,29.75,North,0,9.8,19.2,21,0.00,,,0.00,WUHU216HW,2013-02-25 00:51:00,
2013-02-24 17:56:00,44.3,7.6,29.77,NNW,338,11.2,19.2,22,0.00,,,0.00,WUHU216HW,2013-02-25 00:56:00,
2013-02-24 18:01:00,43.9,7.3,29.76,NNW,338,13.4,16.3,22,0.00,,,0.00,WUHU216HW,2013-02-25 01:01:00,
2013-02-24 18:06:00,43.7,7.1,29.77,NNE,23,12.1,15.9,22,0.00,,,0.00,WUHU216HW,2013-02-25 01:06:00,
2013-02-24 18:11:00,43.6,6.9,29.78,West,270,9.4,17.2,22,0.00,,,0.00,WUHU216HW,2013-02-25 01:11:00,
2013-02-24 18:16:00,43.4,6.8,29.77,NNW,338,6.9,17.4,22,0.00,,,0.00,WUHU216HW,2013-02-25 01:16:00,
2013-02-24 18:21:00,43.2,7.6,29.78,North,0,13.4,19.2,23,0.00,,,0.00,WUHU216HW,2013-02-25 01:21:00,
2013-02-24 18:26:00,43.2,7.6,29.78,NNW,338,11.6,19.2,23,0.00,,,0.00,WUHU216HW,2013-02-25 01:26:00,
2013-02-24 18:31:00,43.0,8.3,29.79,NW,315,13.4,20.4,24,0.00,,,0.00,WUHU216HW,2013-02-25 01:31:00,
2013-02-24 18:36:00,42.8,9.0,29.79,NW,315,13.6,20.4,25,0.00,,,0.00,WUHU216HW,2013-02-25 01:36:00,
2013-02-24 18:41:00,42.7,11.5,29.79,NNW,338,6.9,18.1,28,0.00,,,0.00,WUHU216HW,2013-02-25 01:41:00,
2013-02-24 18:46:00,42.3,12.2,29.80,NNE,23,10.3,19.5,29,0.00,,,0.00,WUHU216HW,2013-02-25 01:46:00,
2013-02-24 18:51:00,41.9,13.4,29.80,NW,315,12.8,19.5,31,0.00,,,0.00,WUHU216HW,2013-02-25 01:51:00,
2013-02-24 18:56:00,41.4,14.3,29.80,NNW,338,16.3,22.6,33,0.00,,,0.00,WUHU216HW,2013-02-25 01:56:00,
2013-02-24 19:01:00,41.0,14.1,29.81,NNW,338,21.5,23.0,33,0.00,,,0.00,WUHU216HW,2013-02-25 02:01:00,
2013-02-24 19:06:00,40.7,15.7,29.81,WNW,293,12.8,23.0,36,0.00,,,0.00,WUHU216HW,2013-02-25 02:06:00,
2013-02-24 19:11:00,40.3,15.3,29.81,West,270,21.9,22.4,36,0.00,,,0.00,WUHU216HW,2013-02-25 02:11:00,
2013-02-24 19:16:00,40.0,15.7,29.82,WNW,293,20.8,22.4,37,0.00,,,0.00,WUHU216HW,2013-02-25 02:16:00,
2013-02-24 19:21:00,39.6,15.3,29.82,NNW,338,21.3,21.9,37,0.00,,,0.00,WUHU216HW,2013-02-25 02:21:00,
2013-02-24 19:26:00,39.6,15.9,29.82,WNW,293,16.1,21.5,38,0.00,,,0.00,WUHU216HW,2013-02-25 02:26:00,
2013-02-24 19:31:00,39.2,16.3,29.82,WSW,248,18.3,21.5,39,0.00,,,0.00,WUHU216HW,2013-02-25 02:31:00,
2013-02-24 19:36:00,39.1,17.3,29.82,NW,315,20.1,20.8,41,0.00,,,0.00,WUHU216HW,2013-02-25 02:36:00,
2013-02-24 19:41:00,38.9,17.1,29.82,NW,315,9.8,23.5,41,0.00,,,0.00,WUHU216HW,2013-02-25 02:41:00,
2013-02-24 19:46:00,38.7,17.5,29.83,WNW,293,17.4,23.5,42,0.00,,,0.00,WUHU216HW,2013-02-25 02:46:00,
2013-02-24 19:51:00,38.5,17.3,29.83,NW,315,15.0,23.9,42,0.00,,,0.00,WUHU216HW,2013-02-25 02:51:00,
2013-02-24 19:56:00,38.3,17.6,29.83,NW,315,15.7,23.9,43,0.00,,,0.00,WUHU216HW,2013-02-25 02:56:00,
2013-02-24 20:01:00,38.3,17.6,29.84,NW,315,10.3,17.9,43,0.00,,,0.00,WUHU216HW,2013-02-25 03:01:00,
2013-02-24 20:06:00,38.3,17.6,29.84,NW,315,16.8,19.2,43,0.00,,,0.00,WUHU216HW,2013-02-25 03:06:00,
2013-02-24 20:11:00,38.2,17.6,29.84,NW,315,11.6,19.2,43,0.00,,,0.00,WUHU216HW,2013-02-25 03:11:00,
2013-02-24 20:16:00,38.0,17.4,29.84,NW,315,10.5,16.8,43,0.00,,,0.00,WUHU216HW,2013-02-25 03:16:00,
2013-02-24 20:21:00,37.6,17.0,29.84,NW,315,6.9,20.8,43,0.00,,,0.00,WUHU216HW,2013-02-25 03:21:00,
2013-02-24 20:26:00,37.8,17.7,29.83,WNW,293,10.7,20.8,44,0.00,,,0.00,WUHU216HW,2013-02-25 03:26:00,
2013-02-24 20:31:00,37.4,17.4,29.84,NW,315,10.7,20.1,44,0.00,,,0.00,WUHU216HW,2013-02-25 03:31:00,
2013-02-24 20:36:00,37.4,17.9,29.84,NNW,338,12.1,18.6,45,0.00,,,0.00,WUHU216HW,2013-02-25 03:36:00,
2013-02-24 20:41:00,37.3,17.7,29.84,NW,315,8.1,18.6,45,0.00,,,0.00,WUHU216HW,2013-02-25 03:41:00,
2013-02-24 20:46:00,37.1,17.6,29.84,NW,315,15.7,16.3,45,0.00,,,0.00,WUHU216HW,2013-02-25 03:46:00,
2013-02-24 20:51:00,36.9,17.5,29.84,West,270,16.8,18.6,45,0.00,,,0.00,WUHU216HW,2013-02-25 03:51:00,
2013-02-24 20:56:00,36.5,17.7,29.84,NNW,338,10.5,18.6,46,0.00,,,0.00,WUHU216HW,2013-02-25 03:56:00,
2013-02-24 21:01:00,36.5,17.7,29.84,NNW,338,19.9,19.9,46,0.00,,,0.00,WUHU216HW,2013-02-25 04:01:00,
2013-02-24 21:06:00,36.4,16.9,29.84,NW,315,18.1,19.9,45,0.00,,,0.00,WUHU216HW,2013-02-25 04:06:00,
2013-02-24 21:11:00,36.4,17.5,29.85,NNW,338,14.3,22.1,46,0.00,,,0.00,WUHU216HW,2013-02-25 04:11:00,
2013-02-24 21:16:00,36.4,16.9,29.85,North,0,11.4,22.1,45,0.00,,,0.00,WUHU216HW,2013-02-25 04:16:00,
2013-02-24 21:21:00,36.4,17.5,29.86,WNW,293,8.7,18.6,46,0.00,,,0.00,WUHU216HW,2013-02-25 04:21:00,
2013-02-24 21:26:00,36.2,17.3,29.86,WNW,293,13.9,18.6,46,0.00,,,0.00,WUHU216HW,2013-02-25 04:26:00,
2013-02-24 21:31:00,36.0,17.6,29.86,NW,315,8.5,18.3,47,0.00,,,0.00,WUHU216HW,2013-02-25 04:31:00,
2013-02-24 21:36:00,36.0,17.1,29.86,WNW,293,12.1,20.1,46,0.00,,,0.00,WUHU216HW,2013-02-25 04:36:00,
2013-02-24 21:41:00,36.2,16.7,29.87,NNW,338,10.3,20.1,45,0.00,,,0.00,WUHU216HW,2013-02-25 04:41:00,
2013-02-24 21:46:00,36.0,17.1,29.87,WNW,293,10.5,17.9,46,0.00,,,0.00,WUHU216HW,2013-02-25 04:46:00,
2013-02-24 21:51:00,36.2,16.7,29.87,NW,315,11.6,18.8,45,0.00,,,0.00,WUHU216HW,2013-02-25 04:51:00,
2013-02-24 21:56:00,36.2,17.3,29.88,WNW,293,11.0,18.8,46,0.00,,,0.00,WUHU216HW,2013-02-25 04:56:00,
2013-02-24 22:00:00,36.0,17.6,29.88,NW,315,5.6,18.6,47,0.00,,,0.00,WUHU216HW,2013-02-25 05:00:00,
2013-02-24 22:05:00,35.8,17.5,29.89,WNW,293,16.3,17.4,47,0.00,,,0.00,WUHU216HW,2013-02-25 05:05:00,
2013-02-24 22:10:00,35.6,17.8,29.89,NNW,338,8.5,17.2,48,0.00,,,0.00,WUHU216HW,2013-02-25 05:10:00,
2013-02-24 22:15:00,35.5,18.2,29.90,NW,315,10.5,17.2,49,0.00,,,0.00,WUHU216HW,2013-02-25 05:15:00,
2013-02-24 22:20:00,35.3,18.0,29.90,North,0,8.1,17.2,49,0.00,,,0.00,WUHU216HW,2013-02-25 05:20:00,
2013-02-24 22:25:00,35.3,18.0,29.90,NW,315,10.1,16.1,49,0.00,,,0.00,WUHU216HW,2013-02-25 05:25:00,
2013-02-24 22:30:00,35.1,17.8,29.90,WNW,293,8.9,16.1,49,0.00,,,0.00,WUHU216HW,2013-02-25 05:30:00,
2013-02-24 22:35:00,35.1,17.4,29.90,WNW,293,10.5,15.7,48,0.00,,,0.00,WUHU216HW,2013-02-25 05:35:00,
2013-02-24 22:40:00,35.1,16.8,29.90,WNW,293,7.4,12.8,47,0.00,,,0.00,WUHU216HW,2013-02-25 05:40:00,
2013-02-24 22:45:00,35.1,16.3,29.91,WNW,293,5.8,12.1,46,0.00,,,0.00,WUHU216HW,2013-02-25 05:45:00,
2013-02-24 22:50:00,35.1,16.3,29.91,NNW,338,8.5,12.1,46,0.00,,,0.00,WUHU216HW,2013-02-25 05:50:00,
2013-02-24 22:55:00,35.1,16.3,29.90,NNW,338,9.2,15.0,46,0.00,,,0.00,WUHU216HW,2013-02-25 05:55:00,
2013-02-24 23:00:00,35.1,16.3,29.90,West,270,7.6,15.0,46,0.00,,,0.00,WUHU216HW,2013-02-25 06:00:00,
2013-02-24 23:05:00,34.9,16.1,29.90,West,270,5.4,13.4,46,0.00,,,0.00,WUHU216HW,2013-02-25 06:05:00,
2013-02-24 23:10:00,34.9,15.6,29.90,NNW,338,4.7,13.4,45,0.00,,,0.00,WUHU216HW,2013-02-25 06:10:00,
2013-02-24 23:15:00,34.9,14.6,29.90,West,270,9.8,12.8,43,0.00,,,0.00,WUHU216HW,2013-02-25 06:15:00,
2013-02-24 23:20:00,34.9,15.1,29.90,WNW,293,12.8,15.0,44,0.00,,,0.00,WUHU216HW,2013-02-25 06:20:00,
2013-02-24 23:25:00,34.7,15.0,29.89,WNW,293,7.6,15.0,44,0.00,,,0.00,WUHU216HW,2013-02-25 06:25:00,
2013-02-24 23:30:00,34.4,15.1,29.89,WNW,293,8.3,14.3,45,0.00,,,0.00,WUHU216HW,2013-02-25 06:30:00,
2013-02-24 23:35:00,34.4,14.0,29.90,NW,315,6.0,14.8,43,0.00,,,0.00,WUHU216HW,2013-02-25 06:35:00,
2013-02-24 23:40:00,34.6,13.8,29.90,NNW,338,9.8,14.8,42,0.00,,,0.00,WUHU216HW,2013-02-25 06:40:00,
2013-02-24 23:45:00,34.6,14.2,29.91,NE,45,9.2,12.3,43,0.00,,,0.00,WUHU216HW,2013-02-25 06:45:00,
2013-02-24 23:50:00,34.4,14.0,29.91,NNW,338,9.6,13.4,43,0.00,,,0.00,WUHU216HW,2013-02-25 06:50:00,
2013-02-24 23:55:00,34.4,13.6,29.90,NW,315,9.4,16.1,42,0.00,,,0.00,WUHU216HW,2013-02-25 06:55:00,